Regional Weather Roundup
Issued by NWS

Home | Current Version | Previous Version | Text Only | Print | Product List | Glossary Off
Versions: 1 2 3 4 5 6 7 8 9 10 11 12 13 14 15 16 17 18 19 20 21 22 23 24 25 26 27 28 29 30 31 32 33 34 35 36 37 38 39 40 41 42 43 44 45 46 47 48 49

000
ASUS45 KTFX 041410
RWRMT
MONTANA REGIONAL WEATHER ROUNDUP
NATIONAL WEATHER SERVICE GREAT FALLS MT
800 AM MDT WED MAY 04 2016

NOTE: "FAIR" INDICATES FEW OR NO CLOUDS BELOW 12000 FEET WITH NO
SIGNIFICANT WEATHER AND/OR OBSTRUCTIONS TO VISIBILITY.

MTZ001>007-043-041500-
WEST OF THE DIVIDE

CITY           SKY/WX    TMP DP  RH WIND       PRES   REMARKS
KALISPELL      MOSUNNY   52  46  80 CALM      30.03R
MISSOULA       PTSUNNY   49  40  71 SW3       30.09S
BUTTE          SUNNY     41  30  65 CALM      30.17S
MULLAN PASS    CLOUDY    52  29  41 SW6       30.12S
ANACONDA         N/A     54  30  40 S9        30.13S
DEER LODGE       N/A     50  32  50 CALM      30.13S
EUREKA           N/A     52  43  71 CALM      30.03R
HAMILTON         N/A     52  34  50 CALM      30.08R
LIBBY            N/A     46  41  81 CALM      30.03R
PLAINS           N/A     45  41  86 CALM      30.03R
$$

MTZ008-052>055-041500-
SOUTHWEST MONTANA

CITY           SKY/WX    TMP DP  RH WIND       PRES   REMARKS
BOZEMAN        SUNNY     49  38  65 SE3       30.14R
DILLON         CLOUDY    48  32  53 SW7       30.16R
ENNIS          SUNNY     50  32  50 NW5       30.22S
TWIN BRIDGES     N/A     50  29  44 E7        30.13R
$$

MTZ009-010-012-014-046-048-049-054-041500-
EAST SLOPES AND CENTRAL MONTANA

CITY           SKY/WX    TMP DP  RH WIND       PRES   REMARKS
CUT BANK       SUNNY     53  38  56 W5        30.00S
GREAT FALLS    SUNNY     60  37  42 S12       30.01S
MALMSTROM AFB  SUNNY     56  43  61 SW2       30.01F
HELENA         SUNNY     51  36  56 N3        30.10R
CHOTEAU          N/A     54  39  58 SW7       30.02S
CONRAD           N/A     54  48  80 NE2       30.01S
$$

MTZ011-013-016-021-045-047-050-051-041500-
NORTH CENTRAL MONTANA

CITY           SKY/WX    TMP DP  RH WIND       PRES   REMARKS
HAVRE          SUNNY     52  46  80 CALM      29.99S
LEWISTOWN      SUNNY     57  39  51 MISG      30.06R
N BAR RANCH      N/A     59  43  55 CALM      30.09S
CHINOOK          N/A     55  45  67 CALM      29.99S
$$

MTZ017>020-022>027-061-062-041500-
NORTHEAST MONTANA

CITY           SKY/WX    TMP DP  RH WIND       PRES   REMARKS
GLASGOW        SUNNY     58  41  53 SE12      30.02R
JORDAN           N/A     53  46  77 CALM      30.03S
SIDNEY         SUNNY     57  43  58 S9        30.07F
WOLF POINT     SUNNY     57  44  62 E5        30.04F
POPLAR           N/A     59  43  55 CALM      30.05S
SCOBEY           N/A     56  36  47 NE2       30.02S
$$

MTZ028>42-056>058-041500-
SOUTHCENTRAL AND SOUTHEAST MONTANA

CITY           SKY/WX    TMP DP  RH WIND       PRES   REMARKS
BAKER          SUNNY     61  42  49 E6        30.12S
BILLINGS       SUNNY     53  39  59 SW10      30.09R
LIVINGSTON     SUNNY     49  33  54 N7        30.13S
MILES CITY     SUNNY     56  41  57 SE9       30.07S
EKALAKA          N/A     63  37  37 E12       30.10
FORSYTH          N/A     57  46  67 N3        30.05S
LAUREL           N/A     55  39  54 SW10      30.06
ROUNDUP          N/A     49  37  63 S13       29.97F
$$

REGIONAL REPORTS...DAKOTAS

CITY           SKY/WX    TMP DP  RH WIND       PRES   REMARKS
WILLISTON      SUNNY     59  41  51 S6        30.06F
MINOT          MOSUNNY   55  34  45 SE6       30.07S
DICKINSON      SUNNY     61  39  44 S7        30.09S
BEACH            N/A     59  41  51 S9        30.13S
CROSBY           N/A     59  39  47 S15       30.05F
TIOGA            N/A     63  36  36 SW12      30.12S
WATFORD CITY     N/A     57  41  54 CALM      30.08F
BISMARCK       SUNNY     48  36  63 E3        30.13S
GRAND FORKS    MOSUNNY   49  36  61 NW9       30.12R
FARGO          SUNNY     50  35  56 N8        30.10R
BUFFALO SD       N/A     57  41  55 SE5       30.08S
RAPID CITY     SUNNY     57  40  52 W5        30.17R
$$

REGIONAL REPORTS...WYOMING/IDAHO/WASHINGTON

CITY           SKY/WX    TMP DP  RH WIND       PRES   REMARKS
GILLETTE       SUNNY     58  42  55 SE7       30.15S
SHERIDAN       SUNNY     52  41  66 CALM      30.12R
BUFFALO WY       N/A     62  38  40 SW3       30.16S
CODY           SUNNY     57  28  33 SW14      30.16S
YELLOWSTONE LA   N/A     33  25  72 CALM      30.34S
IDAHO FALLS    MOSUNNY   47  36  65 N6        30.17S
SALMON         SUNNY     43  34  70 CALM      30.14S
BOISE          MOSUNNY   58  37  45 NW5       29.99R
SPOKANE        CLOUDY    53  45  74 S12       30.00R
$$

REGIONAL REPORTS...ALBERTA

CITY           SKY/WX    TMP DP  RH WIND       PRES   REMARKS
EDMONTON       SUNNY     59  37  44 SW7       29.80R
CALGARY        MOSUNNY   55  30  38 S2        29.94S
LETHBRIDGE     MOSUNNY   57  39  51 W7        29.95F
MEDICINE HAT   SUNNY     61  45  55 SW10      29.92S
WATERTON GATE    N/A     55  37  50 S8          N/A
CARDSTON         N/A     55  39  54 SE5         N/A
MILK RIVER       N/A     52  41  66 W8          N/A
$$

REGIONAL REPORTS...SASKATCHEWAN

CITY           SKY/WX    TMP DP  RH WIND       PRES   REMARKS
SWIFT CURRENT  SUNNY     66  39  37 SW18      29.94S
REGINA         MOSUNNY   57  39  51 SE8       29.99R
SASKATOON      SUNNY     63  41  45 S13       29.87F
CYPRESS HILLS    N/A     63  37  39 SW6         N/A
VAL MARIE        N/A     61  43  51 S3          N/A
ROCKGLEN         N/A     63  39  42 S9          N/A
$$



USA.gov is the U.S. government's official web portal to all federal, state and local government web resources and services.